Home > Time Zones > World Clock > Weather > Oman > Seeb > Past weeks

Flag for Oman Weather past 2 weeks in Seeb, Oman

Now
81 °F

Clear.


Feels Like: 81 °F
Forecast: 77 / 87 °F
Wind: 2 mph from Southeast

Location: International Airport

Current Time: Oct 23, 2014 at 7:20:42 AM

Latest Report: Oct 23, 2014 at 6:50 AM


Visibility: 4 mi

Pressure: 29.95 "Hg

Humidity: 42%

Dew point: 55 °F

Location of SeebLocation

Historic Weather in Seeb — Graph

°F

Seeb temperature yesterday

Maximum temperature yesterday: 90 °F (at 10:50 AM)
Minimum temperature yesterday: 82 °F (at 11:50 PM)
Average temperature yesterday: 87 °F

Past Weeks' High & Low Weather Summary

 TemperatureHumidityPressure
High104 °F (Oct 19, 11:50 AM)89% (Oct 9, 4:50 PM)30.01 "Hg (Oct 9, 4:50 PM)
Low75 °F (Oct 16, 4:50 AM)12% (Oct 19, 11:50 AM)29.71 "Hg (Oct 8, 2:50 PM)
Average87 °F56%29.87 "Hg
* Reported Oct 8 5:50 AM — Oct 23 5:50 AM, Seeb, Weather by CustomWeather, © 2014

Note: Actual official high and low records may vary slightly from our data, if they occured in-between our weather recording intervals... More about our weather records

Advertising

Seeb weather history for previous 24 hours

 ConditionsComfort  
Time TempWeatherWind HumidityBarometerVisibility
5:50 AM
Oct 23
79 °FClear.No wind42%29.92 "Hg5 mi
4:50 AM79 °FClear.No wind42%29.89 "Hg10 mi
3:50 AM79 °FClear.No wind42%29.89 "Hg10 mi
2:50 AM81 °FClear.No wind48%29.89 "Hg10 mi
1:50 AM82 °FClear.1 mph45%29.92 "Hg10 mi
12:50 AM82 °FClear.2 mph48%29.92 "Hg10 mi
11:50 PM
Oct 22
82 °FClear.No wind55%29.92 "Hg10 mi
10:50 PM84 °FClear.No wind70%29.92 "Hg10 mi
9:50 PM84 °FClear.2 mph70%29.92 "Hg10 mi
8:50 PM84 °FClear.No wind66%29.92 "Hg10 mi
7:50 PM86 °FClear.No wind66%29.92 "Hg10 mi
6:50 PM84 °FClear.3 mph70%29.92 "Hg6 mi
5:50 PM86 °FClear.5 mph75%29.92 "Hg5 mi
4:50 PM88 °FClear.7 mph70%29.92 "Hg5 mi
3:50 PM88 °FPassing clouds.9 mph70%29.89 "HgN/A
2:50 PM90 °FSunny.8 mph67%29.89 "Hg10 mi
1:50 PM90 °FPassing clouds.8 mph63%29.89 "HgN/A
12:50 PM90 °FPassing clouds.7 mph67%29.92 "HgN/A
11:50 AM90 °FClear.8 mph63%29.95 "Hg6 mi
10:50 AM90 °FClear.9 mph67%29.98 "Hg5 mi
Weather by CustomWeather, © 2014

See weather overviewHow to use our weather pages